Back to catalog

OPS 5805

AliveMilitaryHEO
NORAD 12093·PAYLOAD·🇺🇸 United States

Launched Dec 13, 1980 from Vandenberg Space Force Base

Loading…

Next Passes (next 24 hours)

TLE

FreshSource: Space-Track

Epoch: Sep 10, 2026, 19:38 UTC

1 12093U 80100A   26253.81848112 -.00000638  00000-0  00000-0 0  9993
2 12093  63.8650 195.0287 6415106 267.0824  23.2749  2.00268455 53871

Track OPS 5805 in real time with AllMySat

Download on the App Store